METEOR 1-24

Satellite information

Favourite Embed

Satellite Type and Status

PAYLOADIN ORBIT

Key statistics

Satellite METEOR 1-24 at a glance.

Uptime

17926

Days in orbit

Revolutions

≈ 14.1

Per day

Orbit

LEO

Low Earth Orbit

Inclination

81.3

Latest

Satellite identification and parameters

Extended collection of information and parameters for METEOR 1-24.

Object identification

Identified? True

Debris? False

Object name: METEOR 1-24

International designator: 1976-032A

Object number (NORAD): 8799

Object ID (CCSDS): 8799

Country: COMMONWEALTH OF INDEPENDENT STATES (CIS)

Current information (Y/N): Y

RCS size: LARGE

Orbital parameters

Period: 101.995 minutes

Inclination: 81.2546 deg

SMA: 7231.246 km

Apoapsis: 877.388 km

Periapsis: 828.833 km

RAAN: 265.461 deg

Eccentricy: 0.0033573

Argument of periapsis: 291.6369 deg

Mean anomaly: 68.1228 deg

Mean motion: 14.11832134 rev/day

Mean motion (dot): 0.0000006 rev/day2

B* drag term: 0.000026124 1/REarth

Two-line elements (TLE)

Creation date: May 6, 2025, 3:54 a.m.

Reference frame: TEME

Reference center: EARTH

Epoch: May 5, 2025, 7:31 p.m. UTC

TLE line 0: 0 METEOR 1-24

TLE line 1: 1 08799U 76032A 25125.81328685 .00000060 00000-0 26124-4 0 9992

TLE line 2: 2 08799 81.2546 265.4610 0033573 291.6369 68.1228 14.11832134526493

Live tracking on map

Real-time ground track for satellite METEOR 1-24.

In-orbit conjunctions

A list of the most updated potential collisions computed for object METEOR 1-24.

Target Orbit TCA Probability of collision Miss distance Type
FENGYUN 1C DEB SSO 2024-11-19 18:54:40 0.0006761339 180.0 (m) DEBRIS
CZ-6A DEB LEO 2024-11-05 23:13:30 0.0003249832 459.0 (m) DEBRIS
FENGYUN 1C DEB SSO 2024-10-15 22:52:45 0.0001069729 766.0 (m) DEBRIS
FENGYUN 1C DEB SSO 2024-09-19 18:27:48 0.001079147 128.0 (m) DEBRIS
FENGYUN 1C DEB SSO 2024-09-16 00:18:58 0.000187521 110.0 (m) DEBRIS

Associated space launch

The Meteor-1 series was the first series of Soviet meteorological satellites.

METEOR 1-24 was lifted into orbit during the mission ‘Vostok 8A92M | Meteor-1 24 (37L)’, on board a Vostok 8A92M space rocket.

The launch took place on April 7, 1976, 1:05 p.m. from 41/1.

For more information about the launch, click the button.

Launch to space Vostok 8A92M | Meteor-1 24 (37L)
Vostok 8A92M | Meteor-1 24 (37L)

Agency: N/A

Status: Launch Successful

Launch date: April 7, 1976, 1:05 p.m. UTC

Rocket: Vostok 8A92M

Launch pad: 41/1

Location: Plesetsk Cosmodrome, Russian Federation

...

Latest news about this satellite

There are no fresh news available about this satellite. Check back as we update our databases every day.


Newsletter sign-up

Weekly statistics, charts and insights to help you stay on top of the space industry.